Ketchikan, AK

3:38 AM AKST on January 21, 2019 (GMT -0900)
Ketchikan International

Weather History for PAKT - December, 2018

Change the Weather History Date:

Tuesday, December 11, 2018

  Actual Average Record
Temperature  
Mean Temperature 42 °F -  
Max Temperature 48 °F 40 °F 59 °F (1962)
Min Temperature 37 °F 31 °F 20 °F (1977)
Degree Days  
Heating Degree Days 22    
Moisture  
Dew Point 38 °F    
Average Humidity 84    
Maximum Humidity 93    
Minimum Humidity 76    
Precipitation  
Precipitation 0.00 in - - ()
Sea Level Pressure  
Sea Level Pressure 29.14 in    
Wind  
Wind Speed 14 mph (SE)    
Max Wind Speed 24 mph    
Max Gust Speed 40 mph    
Visibility 8 miles    
Events Rain    
Averages and records for this station are not official NWS values.
T = Trace of Precipitation, MM = Missing Value Source: NWS Daily Summary

Daily Weather History Graph

Daily Weather History Graph

Search for Another Location

Airport or City:

Astronomy

Dec. 11, 2018 Rise Set
Actual Time 8:04 AM AKST 3:16 PM AKST
Civil Twilight 7:18 AM AKST 4:01 PM AKST
Nautical Twilight 6:30 AM AKST 4:49 PM AKST
Astronomical Twilight 5:45 AM AKST 5:34 PM AKST
Moon 11:15 AM AKST (12/11) 7:38 PM AKST (12/11)
Length of Visible Light 8h 43m
Length of Day
7h 12m
Waxing Crescent, 18% of the Moon is Illuminated
Dec 11
Waxing Crescent
Dec 15
First Quarter
Dec 22
Full
Dec 29
Last Quarter
Jan 5
New

Hourly Weather History & Observations

Time (AKST) Temp. Windchill Dew Point Humidity Pressure Visibility Wind Dir Wind Speed Gust Speed Precip Events Conditions
12:25 AM 45.0 °F 36.2 °F 41.0 °F 86% 29.01 in 1.8 mi SE 24.2 mph 40.3 mph N/A Rain Rain
12:51 AM 44.6 °F 36.4 °F 42.8 °F 93% 28.99 in 2.0 mi SE 20.7 mph 32.2 mph N/A Rain Heavy Rain
12:53 AM 44.1 °F 35.7 °F 42.1 °F 93% 28.99 in 2.0 mi SE 20.7 mph 32.2 mph N/A Rain Rain
1:03 AM 44.1 °F 37.1 °F 42.1 °F 93% 28.98 in 4.0 mi SSE 15.0 mph 27.6 mph N/A Rain Rain
1:43 AM 45.0 °F 36.2 °F 42.1 °F 90% 28.95 in 1.8 mi SE 24.2 mph 35.7 mph N/A Rain Rain
1:53 AM 45.0 °F 36.9 °F 42.1 °F 90% 28.95 in 2.0 mi SE 20.7 mph 33.4 mph N/A Rain Rain
2:07 AM 45.0 °F 37.4 °F 43.0 °F 93% 28.93 in 1.8 mi SE 18.4 mph 28.8 mph N/A Rain Rain
2:11 AM 45.0 °F 37.4 °F 43.0 °F 93% 28.94 in 2.5 mi SSE 18.4 mph 28.8 mph N/A Rain Rain
2:18 AM 45.0 °F 37.1 °F 42.1 °F 90% 28.93 in 7.0 mi SE 19.6 mph 26.5 mph N/A Rain Light Rain
2:53 AM 46.9 °F - 44.1 °F 90% 28.93 in 3.0 mi SE 23.0 mph 29.9 mph N/A Rain Light Rain
3:08 AM 48.2 °F - 42.8 °F 82% 28.94 in 10.0 mi SSE 13.8 mph 25.3 mph N/A   Overcast
3:53 AM 46.9 °F - 41.0 °F 80% 28.97 in 8.0 mi SSE 11.5 mph 25.3 mph N/A Rain Light Rain
4:53 AM 46.0 °F 40.6 °F 42.1 °F 86% 28.98 in 9.0 mi SE 11.5 mph - N/A   Overcast
5:43 AM 46.0 °F 40.2 °F 39.9 °F 79% 28.99 in 10.0 mi SE 12.7 mph - N/A   Overcast
5:53 AM 46.0 °F 41.0 °F 39.9 °F 79% 28.99 in 8.0 mi SSE 10.4 mph - N/A Rain Light Rain
6:05 AM 45.0 °F 41.2 °F 39.9 °F 82% 28.98 in 10.0 mi SE 6.9 mph - N/A Rain Light Rain
6:51 AM 44.6 °F 38.8 °F 37.4 °F 76% 29.00 in 10.0 mi SE 11.5 mph 19.6 mph N/A   Mostly Cloudy
7:51 AM 44.6 °F 40.7 °F 37.4 °F 76% 29.05 in 5.0 mi SSE 6.9 mph - N/A Rain Rain
7:53 AM 42.8 °F 38.6 °F 37.4 °F 81% 29.06 in 6.0 mi South 6.9 mph - N/A Rain Rain
8:51 AM 42.8 °F 38.6 °F 37.4 °F 81% 29.11 in 10.0 mi ESE 6.9 mph - N/A   Mostly Cloudy
8:53 AM 42.8 °F 38.6 °F 37.4 °F 81% 29.11 in 10.0 mi SE 6.9 mph - N/A   Mostly Cloudy
9:53 AM 42.8 °F 38.0 °F 35.6 °F 76% 29.15 in 10.0 mi SSE 8.1 mph - N/A   Scattered Clouds
10:53 AM 42.8 °F 37.5 °F 37.4 °F 81% 29.18 in 10.0 mi SE 9.2 mph - N/A   Mostly Cloudy
11:51 AM 42.8 °F 38.6 °F 37.4 °F 81% 29.19 in 10.0 mi SSE 6.9 mph - N/A   Overcast
11:53 AM 42.8 °F 39.3 °F 37.4 °F 81% 29.20 in 10.0 mi SSE 5.8 mph - N/A   Overcast
12:53 PM 42.8 °F 37.5 °F 37.4 °F 81% 29.21 in 10.0 mi ESE 9.2 mph - N/A   Mostly Cloudy
1:53 PM 42.8 °F 41.1 °F 37.4 °F 81% 29.22 in 10.0 mi SE 3.5 mph - N/A Rain Light Rain
2:51 PM 41.0 °F 35.2 °F 37.4 °F 87% 29.22 in 10.0 mi SE 9.2 mph - N/A Rain Light Rain
2:53 PM 41.0 °F 35.8 °F 37.4 °F 87% 29.22 in 10.0 mi SE 8.1 mph - N/A Rain Light Rain
3:53 PM 41.0 °F 37.1 °F 37.4 °F 87% 29.23 in 10.0 mi SE 5.8 mph - N/A   Overcast
4:53 PM 39.2 °F 33.6 °F 37.4 °F 93% 29.23 in 10.0 mi SE 8.1 mph - N/A   Mostly Cloudy
5:51 PM 41.0 °F 36.4 °F 37.4 °F 87% 29.25 in 9.0 mi SE 6.9 mph - N/A Rain Light Rain
5:53 PM 41.0 °F 36.4 °F 37.4 °F 87% 29.26 in 9.0 mi SE 6.9 mph - N/A Rain Light Rain
6:53 PM 42.8 °F 41.1 °F 35.6 °F 76% 29.29 in 10.0 mi Variable 3.5 mph - N/A Rain Light Rain
7:41 PM 41.0 °F 36.4 °F 35.1 °F 79% 29.33 in 2.5 mi NW 6.9 mph - N/A Rain Rain
7:48 PM 39.2 °F 35.9 °F 35.6 °F 87% 29.33 in 6.0 mi West 4.6 mph - N/A Rain Light Rain
7:53 PM 39.2 °F 35.0 °F 35.6 °F 87% 29.34 in 10.0 mi NW 5.8 mph - N/A   Overcast
8:53 PM 41.0 °F 37.1 °F 34.0 °F 76% 29.39 in 10.0 mi East 5.8 mph - N/A   Scattered Clouds
9:53 PM 39.0 °F - 34.0 °F 82% 29.43 in 10.0 mi North - - N/A   Mostly Cloudy
10:28 PM 39.0 °F 34.8 °F 33.1 °F 79% 29.46 in 3.0 mi Variable 5.8 mph - N/A Rain Rain
10:53 PM 37.0 °F 34.5 °F 33.1 °F 86% 29.48 in 10.0 mi Variable 3.5 mph - N/A   Mostly Cloudy
11:53 PM 37.0 °F 33.3 °F 32.0 °F 82% 29.53 in 10.0 mi East 4.6 mph - N/A   Clear